Regional Weather Roundup
Issued by NWS

Home | Current Version | Previous Version | Text Only | Print | Product List | Glossary On
Versions: 1 2 3 4 5 6 7 8 9 10 11 12 13 14 15 16 17 18 19 20 21 22 23 24 25 26 27 28 29 30 31 32 33 34 35 36 37 38 39 40 41 42 43 44 45 46 47 48 49
000
ASUS45 KBOU 242107
RWRCO

WEATHER ROUNDUP FOR COLORADO
NATIONAL WEATHER SERVICE DENVER/BOULDER CO
300 PM MDT THU JUL 24 2014

NOTE: "FAIR" INDICATES FEW OR NO CLOUDS BELOW 12000 FEET WITH NO
SIGNIFICANT WEATHER AND/OR OBSTRUCTIONS TO VISIBILITY.

COZ001>005-013-030-031-242200-
...NORTHWEST COLORADO...

CITY           SKY/WX    TMP DP  RH WIND       PRES   REMARKS
CRAIG          CLOUDY    76  53  44 SW16      30.22F
HAYDEN         CLOUDY    79  48  34 W10       30.26F
MEEKER         PTSUNNY   81  50  33 SW13      30.24F
MOUNT WERNER   NOT AVBL
STEAMBOAT SPGS CLOUDY    68  58  72 E7        30.30F
WALDEN         CLOUDY    70  45  40 SW12      30.39S
$$

COZ006>008-011-242200-
...WEST CENTRAL VALLEYS...

CITY           SKY/WX    TMP DP  RH WIND       PRES   REMARKS
GRAND JUNCTION PTSUNNY   89  47  23 W3        30.10F
MONTROSE       PTSUNNY   88  50  27 NE5       30.20F
EAGLE          PTSUNNY   82  46  28 NW8       30.26F
RIFLE          PTSUNNY   88  47  24 VRB5      30.16F
DELTA          PTSUNNY   89  49  25 CALM      30.15F
NUCLA          PTSUNNY   86  45  23 CALM      30.25F
$$

COZ017>023-064>068-242200-
...SOUTHWEST COLORADO...

CITY           SKY/WX    TMP DP  RH WIND       PRES   REMARKS
DURANGO        PTSUNNY   85  45  24 W10       30.27F
CORTEZ         PTSUNNY   86  49  27 VRB3      30.21F
PAGOSA SPRINGS PTSUNNY   81  42  24 W10       30.37F
TELLURIDE      TSTM      59  52  77 NE5       30.48R
WOLF CREEK PAS NOT AVBL
$$

COZ009-010-012-014-032>034-037-058>063-242200-
...CENTRAL COLORADO...

CITY           SKY/WX    TMP DP  RH WIND       PRES   REMARKS
ASPEN          PTSUNNY   77  47  34 N6        30.34F
BUENA VISTA    MOSUNNY   83  36  18 W12G18    30.30F
COPPER MTN     MOSUNNY   66  34  30 W24       30.70F
BERTHOUD PASS  FAIR      54  37  54 NW20G26   30.75S
COTTONWOOD PAS MOSUNNY   82  32  16 N5        30.49F
GUNNISON       PTSUNNY   77  46  33 N7        30.36S THUNDER
KREMMLING      PTSUNNY   77  41  27 N8G16     30.33F
LEADVILLE      MOSUNNY   72  41  32 NW15G26   30.50F
MONARCH PASS   MOSUNNY   64  34  32 SW20G25   30.79F
SALIDA         MOSUNNY  N/A N/A N/A W9        30.33F
SUNLIGHT       CLOUDY    61  52  72 CALM      30.64S THUNDER
WILKERSON PASS MOSUNNY   79  34  19 SW5       30.64F
$$

COZ069>075-242200-
...SAN LUIS VALLEY/SANGRE DE CRISTO MOUNTAINS...

CITY           SKY/WX    TMP DP  RH WIND       PRES   REMARKS
ALAMOSA        SUNNY     85  44  23 SE12      30.31F
LA VETA PASS   SUNNY     75  41  29 SW7G21    30.54F
SAGUACHE       MOSUNNY   77  50  38 S5        30.34F
$$

COZ035-036-038>040-242200-
...NORTHERN COLORADO FRONT RANGE...

CITY           SKY/WX    TMP DP  RH WIND       PRES   REMARKS
DENVER INTL AP CLOUDY    93  41  16 VRB5      30.07F
DMNS CITY PARK   N/A     96  43  16 N3        30.06F
AURORA         PTSUNNY   92  47  21 N5        30.10F
FRONT RANGE AP PTSUNNY   93  41  16 NW10      30.08F
ERIE MUNI ARPT PTSUNNY   92  44  19 E12       30.05F
BOULDER MUN AP PTSUNNY   93  45  18 SE5       30.06S
CENTENNIAL     PTSUNNY   89  45  21 N10       30.11F
BROOMFIELD     PTSUNNY   86  50  28 VRB6      30.11F
FORT COLLINS   CLOUDY    88  52  29 N12       30.02R
LONGMONT       CLOUDY    96  46  17 SE10G20   30.06S
$$

COZ041-046-047-076>085-087-088-242200-
...PIKES PEAK/PALMER DIVIDE AND SOUTHERN FOOTHILLS...

CITY           SKY/WX    TMP DP  RH WIND       PRES   REMARKS
COLO. SPRINGS  MOSUNNY   92  46  20 E7        30.13F
A. F. ACADEMY  MOSUNNY   88  46  22 S10       30.15F
ELLICOTT       MOSUNNY   92  44  19 S15       30.13F
FALCON         MOSUNNY   90  44  20 S9G21     30.21F
FORT CARSON    PTSUNNY   93  47  20 E8        30.09F
LIMON          PTSUNNY   97  47  18 S18G25    30.04F
MONUMENT HILL  PTSUNNY   84  41  21 NE5       30.21F
TRINIDAD       SUNNY     94  41  16 VRB5      30.12F
$$

COZ042>045-048>051-090-091-242200-
...NORTHEAST COLORADO...

CITY           SKY/WX    TMP DP  RH WIND       PRES   REMARKS
GREELEY ARPT   PTSUNNY   91  54  27 NE6       30.00F
AKRON          SUNNY    100  40  12 W9        29.97F
BURLINGTON     SUNNY    100  41  13 S20G29    29.98F
WRAY             N/A    104  37  10 SW13G22   29.89F
STERLING       SUNNY    100  55  22 S6        29.90F
HOLYOKE        SUNNY     99  59  26 S12       29.89F
FORT MORGAN    SUNNY    102  40  11 SW8       29.97F
$$

COZ086-089-092>099-242200-
...SOUTHEAST COLORADO...

CITY           SKY/WX    TMP DP  RH WIND       PRES   REMARKS
PUEBLO         SUNNY     99  42  14 SE12      30.00F
LA JUNTA       SUNNY     99  43  14 S9        29.99F
LAMAR          SUNNY    102  41  12 SW15      29.94F
SPRINGFIELD      N/A     97  46  17 S21G28    30.04F
$$


USA.gov is the U.S. government's official web portal to all federal, state and local government web resources and services.